Flag for Netherlands Weather past 2 weeks in Tilburg, Netherlands

Now
61 °F

Overcast.


Feels Like: 61 °F
Forecast: 50 / 62 °F
Wind: 15 mph from Southwest

Location: Gilze-Rijen

Current Time: Jun 2, 2015 at 2:00:49 PM

Latest Report: Jun 2, 2015 at 1:25 PM


Visibility: N/A

Pressure: 29.80 "Hg

Humidity: 77%

Dew point: 54 °F

Location of TilburgLocation

Historic Weather in Tilburg — Graph

°F

Tilburg temperature yesterday

Maximum temperature yesterday: 61 °F (at 1:55 PM)
Minimum temperature yesterday: 48 °F (at 4:25 AM)
Average temperature yesterday: 55 °F

Past Weeks' High & Low Weather Summary

 TemperatureHumidityPressure
High68 °F (May 22, 2:55 PM)100% (May 21, 5:25 AM)30.33 "Hg (May 21, 5:25 AM)
Low41 °F (May 20, 3:55 AM)24% (May 24, 6:25 PM)29.62 "Hg (May 18, 8:25 PM)
Average55 °F72%30.00 "Hg
* Reported May 18 12:25 PM — Jun 2 12:55 PM, Tilburg, Weather by CustomWeather, © 2015

Note: Actual official high and low records may vary slightly from our data, if they occured in-between our weather recording intervals... More about our weather records

Advertising

Tilburg weather history for previous 24 hours

 ConditionsComfort  
Time TempWeatherWind HumidityBarometerVisibility
12:55 PM
Tue, Jun 2
61 °FMostly cloudy.18 mph72%29.80 "HgN/A
12:25 PM59 °FOvercast.17 mph77%29.80 "HgN/A
11:55 AM59 °FMostly cloudy.15 mph77%29.80 "HgN/A
11:25 AM57 °FMostly cloudy.18 mph77%29.77 "HgN/A
10:55 AM55 °FPartly sunny.17 mph82%29.80 "HgN/A
10:25 AM55 °FDrizzle. Mostly cloudy.20 mph82%29.77 "HgN/A
10:00 AM54 °FBroken clouds.17 mph88%29.77 "HgN/A
9:25 AM54 °FDrizzle. Partly sunny.15 mph88%29.77 "HgN/A
8:59 AM54 °FDrizzle. Partly sunny.16 mph88%29.77 "HgN/A
8:55 AM54 °FLight rain. Partly sunny.16 mph88%29.77 "Hg6 mi
8:25 AM54 °FDrizzle. Broken clouds.15 mph82%29.77 "HgN/A
7:55 AM55 °FBroken clouds.18 mph72%29.77 "HgN/A
7:25 AM54 °FPartly sunny.17 mph77%29.77 "HgN/A
6:55 AM54 °FPartly sunny.16 mph77%29.77 "HgN/A
6:25 AM54 °FPassing clouds.17 mph77%29.77 "HgN/A
5:25 AM55 °FCool.15 mph67%29.77 "HgN/A
4:55 AM55 °FCool.15 mph67%29.77 "HgN/A
4:25 AM55 °FCool.14 mph63%29.77 "HgN/A
3:55 AM55 °FPassing clouds.14 mph63%29.80 "HgN/A
3:25 AM55 °FPassing clouds.14 mph67%29.80 "HgN/A
2:55 AM55 °FPassing clouds.12 mph63%29.80 "HgN/A
2:25 AM55 °FPassing clouds.13 mph63%29.83 "HgN/A
1:55 AM55 °FPassing clouds.13 mph63%29.83 "HgN/A
1:25 AM55 °FPassing clouds.14 mph63%29.86 "HgN/A
1:01 AM55 °FCool.13 mph63%29.86 "HgN/A
12:25 AM55 °FPassing clouds.10 mph63%29.89 "HgN/A
11:55 PM
Mon, Jun 1
55 °FOvercast.8 mph63%29.89 "HgN/A
11:25 PM55 °FPassing clouds.8 mph63%29.89 "HgN/A
10:55 PM55 °FCool.8 mph63%29.92 "HgN/A
10:25 PM55 °FPassing clouds.6 mph63%29.92 "HgN/A
9:55 PM55 °FCool.6 mph63%29.92 "HgN/A
9:25 PM57 °FPassing clouds.6 mph59%29.92 "HgN/A
8:55 PM57 °FRefreshingly cool.6 mph59%29.92 "HgN/A
8:25 PM59 °FPassing clouds.6 mph55%29.95 "HgN/A
7:55 PM59 °FScattered clouds.5 mph51%29.95 "HgN/A
7:25 PM59 °FPartly sunny.9 mph48%29.95 "HgN/A
6:55 PM61 °FScattered clouds.8 mph45%29.98 "HgN/A
6:25 PM61 °FPassing clouds.9 mph48%29.98 "HgN/A
5:55 PM61 °FPassing clouds.9 mph48%29.98 "HgN/A
5:25 PM59 °FPartly sunny.8 mph51%29.98 "HgN/A
4:55 PM61 °FPartly sunny.8 mph48%30.01 "HgN/A
4:25 PM61 °FPartly sunny.9 mph48%30.01 "HgN/A
3:55 PM61 °FBroken clouds.8 mph48%30.01 "HgN/A
3:25 PM59 °FPassing clouds.10 mph48%30.01 "HgN/A
2:55 PM59 °FPassing clouds.9 mph51%30.04 "HgN/A
2:25 PM59 °FBroken clouds.9 mph48%30.01 "HgN/A
Weather by CustomWeather, © 2015

See weather overviewHow to use our weather pages